GW6181 Weather Reports


time (UTC)temp
C
wind
direction
speed
KPH
gust
KPH
rain 1hr
cm
rain 24hr
cm
rain mn
cm
humidity
%
barometer
mb
20260504004516 11 44 0.0 1.6 0.00 0.00 0.00 35 1010.0
20260504004016 11 299 0.0 1.6 0.00 0.00 0.00 34 1010.0
20260504003517 12 126 0.0 1.6 0.00 0.00 0.00 34 1010.0
20260504003017 12 163 1.6 3.2 0.00 0.00 0.00 33 1010.0
20260504002516 12 156 3.2 3.2 0.00 0.00 0.00 33 1010.0
20260504002016 12 278 0.0 3.2 0.00 0.00 0.00 33 1010.0
20260504001517 12 333 1.6 4.8 0.00 0.00 0.00 32 1010.0
20260504001016 12 322 0.0 1.6 0.00 0.00 0.00 31 1010.0
20260504000517 12 110 0.0 4.8 0.00 0.00 0.00 31 1010.0
20260504000018 13 129 0.0 4.8 0.00 0.00 0.00 30 1010.0
20260503235518 13 289 1.6 4.8 0.00 0.00 0.00 30 1009.0
20260503235016 13 58 0.0 4.8 0.00 0.00 0.00 30 1010.0
20260503234517 13 62 3.2 8.0 0.00 0.00 0.00 29 1009.0
20260503234016 13 180 1.6 3.2 0.00 0.00 0.00 30 1009.0
20260503233516 13 284 0.0 3.2 0.00 0.00 0.00 29 1010.0
20260503233016 13 28 6.4 9.7 0.00 0.00 0.00 29 1009.0
20260503232516 13 250 1.6 4.8 0.00 0.00 0.00 29 1009.0
20260503232017 14 113 3.2 4.8 0.00 0.00 0.00 28 1009.0
20260503231516 14 68 1.6 6.4 0.00 0.00 0.00 28 1009.0
20260503231016 14 184 0.0 4.8 0.00 0.00 0.00 27 1009.0
20260503230516 14 160 0.0 3.2 0.00 0.00 0.00 27 1009.0
20260503230016 14 306 1.6 6.4 0.00 0.00 0.00 27 1009.0
20260503225516 14 262 8.0 8.0 0.00 0.00 0.00 26 1009.0
20260503225016 14 61 8.0 8.0 0.00 0.00 0.00 27 1009.0
20260503224516 14 328 1.6 8.0 0.00 0.00 0.00 27 1009.0
20260503224016 14 164 3.2 9.7 0.00 0.00 0.00 26 1009.0
20260503223517 14 4 3.2 8.0 0.00 0.00 0.00 27 1009.0
20260503223016 14 260 1.6 6.4 0.00 0.00 0.00 27 1009.0
20260503222517 13 184 0.0 8.0 0.00 0.00 0.00 27 1009.0
20260503222017 14 262 4.8 8.0 0.00 0.00 0.00 26 1009.0
20260503221516 14 206 4.8 4.8 0.00 0.00 0.00 26 1009.0
20260503221016 14 147 3.2 8.0 0.00 0.00 0.00 26 1009.0
20260503220517 15 28 3.2 9.7 0.00 0.00 0.00 25 1009.0
20260503220016 15 256 6.4 11.3 0.00 0.00 0.00 26 1009.0
20260503215517 15 12 1.6 3.2 0.00 0.00 0.00 27 1008.0
20260503215017 15 331 3.2 9.7 0.00 0.00 0.00 26 1009.0
20260503214516 15 19 1.6 6.4 0.00 0.00 0.00 27 1009.0
20260503214016 15 349 3.2 6.4 0.00 0.00 0.00 25 1009.0
20260503213516 15 266 8.0 9.7 0.00 0.00 0.00 25 1009.0
20260503213016 15 234 6.4 14.5 0.00 0.00 0.00 25 1009.0
20260503212516 15 319 9.7 19.3 0.00 0.00 0.00 25 1009.0
20260503212016 15 25 6.4 11.3 0.00 0.00 0.00 26 1009.0
20260503211516 15 219 6.4 12.9 0.00 0.00 0.00 25 1009.0
20260503211017 15 169 3.2 9.7 0.00 0.00 0.00 25 1009.0
20260503210517 15 95 0.0 6.4 0.00 0.00 0.00 25 1009.0
20260503210016 13 70 6.4 9.7 0.00 0.00 0.00 26 1009.0
20260503205516 14 28 12.9 16.1 0.00 0.00 0.00 25 1009.0
20260503205017 14 8 3.2 17.7 0.00 0.00 0.00 25 1009.0
20260503204516 13 21 1.6 11.3 0.00 0.00 0.00 26 1009.0
20260503204016 13 87 4.8 19.3 0.00 0.00 0.00 26 1009.0
20260503203516 15 354 9.7 20.9 0.00 0.00 0.00 25 1009.0
20260503203017 15 307 4.8 8.0 0.00 0.00 0.00 26 1009.0
20260503202516 15 249 3.2 4.8 0.00 0.00 0.00 26 1009.0
20260503202017 15 286 3.2 16.1 0.00 0.00 0.00 24 1009.0
20260503201517 15 339 4.8 4.8 0.00 0.00 0.00 28 1009.0
20260503201016 13 11 3.2 11.3 0.00 0.00 0.00 27 1009.0
20260503200516 13 0 3.2 11.3 0.00 0.00 0.00 27 1009.0
20260503200018 13 267 3.2 14.5 0.00 0.00 0.00 27 1009.0
20260503195517 13 145 3.2 14.5 0.00 0.00 0.00 27 1009.0
20260503195016 12 199 6.4 17.7 0.00 0.00 0.00 28 1009.0
20260503194516 12 37 4.8 14.5 0.00 0.00 0.00 27 1009.0
20260503194017 14 352 8.0 27.4 0.00 0.00 0.00 26 1009.0
20260503193516 15 328 4.8 14.5 0.00 0.00 0.00 25 1009.0
20260503193017 15 235 1.6 6.4 0.00 0.00 0.00 27 1009.0
20260503192517 15 108 3.2 8.0 0.00 0.00 0.00 28 1009.0
20260503192019 14 280 1.6 11.3 0.00 0.00 0.00 27 1009.0
20260503191518 13 295 4.8 12.9 0.00 0.00 0.00 27 1009.0
20260503191017 13 13 9.7 11.3 0.00 0.00 0.00 28 1009.0
20260503190516 13 50 11.3 14.5 0.00 0.00 0.00 28 1009.0
20260503190017 14 29 16.1 20.9 0.00 0.00 0.00 27 1010.0
20260503185517 14 0 6.4 9.7 0.00 0.00 0.00 27 1010.0
20260503185017 13 341 4.8 16.1 0.00 0.00 0.00 28 1010.0
20260503184516 13 260 6.4 14.5 0.00 0.00 0.00 29 1010.0
20260503184016 13 24 12.9 16.1 0.00 0.00 0.00 30 1010.0
20260503183516 13 342 11.3 20.9 0.00 0.00 0.00 28 1010.0
20260503183016 12 4 6.4 8.0 0.00 0.00 0.00 31 1010.0
20260503182516 12 65 8.0 14.5 0.00 0.00 0.00 31 1010.0
20260503182017 12 203 1.6 9.7 0.00 0.00 0.00 32 1010.0
20260503181516 11 359 11.3 27.4 0.00 0.00 0.00 31 1010.0
20260503181016 12 76 3.2 12.9 0.00 0.00 0.00 31 1010.0
20260503180516 12 295 4.8 24.1 0.00 0.00 0.00 31 1010.0
20260503180017 12 214 3.2 14.5 0.00 0.00 0.00 31 1010.0
20260503175516 11 39 8.0 17.7 0.00 0.00 0.00 32 1010.0
20260503175016 11 51 6.4 11.3 0.00 0.00 0.00 34 1010.0
20260503174517 12 5 4.8 14.5 0.00 0.00 0.00 32 1010.0
20260503174016 12 126 8.0 8.0 0.00 0.00 0.00 31 1010.0
20260503173516 12 316 4.8 14.5 0.00 0.00 0.00 33 1010.0
20260503173017 11 25 0.0 6.4 0.00 0.00 0.00 34 1010.0
20260503172517 11 23 11.3 16.1 0.00 0.00 0.00 35 1011.0
20260503172016 11 55 4.8 14.5 0.00 0.00 0.00 35 1011.0
20260503171517 11 44 20.9 27.4 0.00 0.00 0.00 35 1010.0
20260503171016 11 345 8.0 17.7 0.00 0.00 0.00 36 1011.0
20260503170516 10 343 4.8 11.3 0.00 0.00 0.00 37 1011.0
20260503150516 8 250 8.0 14.5 0.00 0.00 0.00 41 1012.0
20260503131016 6 237 6.4 16.1 0.00 0.00 0.00 52 1011.0
20260503130516 6 125 3.2 16.1 0.00 0.00 0.00 52 1011.0
20260503110517 5 113 4.8 9.7 0.00 0.00 0.00 59 1011.0
20260503081516 6 15 8.0 11.3 0.00 0.00 0.00 52 1010.0
20260503081016 6 35 0.0 6.4 0.00 0.00 0.00 53 1010.0
20260503080517 6 106 0.0 6.4 0.00 0.00 0.00 52 1010.0
20260503072516 6 9 3.2 8.0 0.00 0.00 0.00 52 1009.0
20260503072016 6 56 4.8 6.4 0.00 0.00 0.00 51 1010.0
20260503071517 6 25 0.0 4.8 0.00 0.00 0.00 51 1009.0
20260503071017 7 358 4.8 6.4 0.00 0.00 0.00 50 1010.0
20260503070517 7 28 4.8 6.4 0.00 0.00 0.00 50 1010.0
20260503055016 7 50 0.0 4.8 0.00 0.00 0.00 47 1010.0
20260503054516 7 17 0.0 6.4 0.00 0.00 0.00 46 1010.0
20260503054016 7 30 4.8 8.0 0.00 0.00 0.00 45 1010.0
20260503053516 7 215 1.6 9.7 0.00 0.00 0.00 45 1010.0
20260503053016 7 40 6.4 8.0 0.00 0.00 0.00 46 1010.0
20260503052516 8 2 3.2 4.8 0.00 0.00 0.00 46 1010.0
20260503052016 8 36 3.2 4.8 0.00 0.00 0.00 46 1010.0
20260503051516 8 32 0.0 11.3 0.00 0.00 0.00 44 1010.0
20260503051016 8 5 4.8 11.3 0.00 0.00 0.00 44 1010.0
20260503050517 8 54 3.2 6.4 0.00 0.00 0.00 45 1010.0
20260503050017 8 38 4.8 12.9 0.00 0.00 0.00 44 1010.0
20260503045516 8 32 3.2 4.8 0.00 0.00 0.00 45 1010.0
20260503045016 8 75 4.8 4.8 0.00 0.00 0.00 46 1010.0
20260503044516 8 35 1.6 4.8 0.00 0.00 0.00 44 1010.0
20260503044017 8 30 4.8 6.4 0.00 0.00 0.00 45 1010.0
20260503043516 8 27 3.2 4.8 0.00 0.00 0.00 44 1010.0
20260503043016 8 336 3.2 6.4 0.00 0.00 0.00 45 1010.0
20260503042516 8 11 1.6 4.8 0.00 0.00 0.00 45 1010.0
20260503042016 8 358 4.8 8.0 0.00 0.00 0.00 44 1010.0
20260503041516 8 214 0.0 8.0 0.00 0.00 0.00 44 1010.0
20260503041016 8 20 3.2 4.8 0.00 0.00 0.00 43 1010.0
20260503040516 8 98 1.6 4.8 0.00 0.00 0.00 43 1010.0
20260503040016 8 76 6.4 8.0 0.00 0.00 0.00 43 1010.0
20260503035516 8 26 1.6 4.8 0.00 0.00 0.00 43 1010.0
20260503035017 8 44 4.8 4.8 0.00 0.00 0.00 42 1010.0
20260503034516 8 18 4.8 8.0 0.00 0.00 0.00 42 1010.0
20260503034016 8 20 6.4 9.7 0.00 0.00 0.00 41 1010.0
20260503033516 8 22 4.8 8.0 0.00 0.00 0.00 42 1010.0
20260503033016 9 80 0.0 3.2 0.00 0.00 0.00 41 1010.0
20260503032516 9 305 3.2 8.0 0.00 0.00 0.00 41 1010.0
20260503032017 9 32 0.0 4.8 0.00 0.00 0.00 40 1010.0
20260503031518 9 24 4.8 6.4 0.00 0.00 0.00 41 1010.0
20260503031016 9 1 1.6 8.0 0.00 0.00 0.00 40 1010.0
20260503030516 9 33 4.8 8.0 0.00 0.00 0.00 40 1010.0
20260503030017 9 30 3.2 8.0 0.00 0.00 0.00 39 1010.0
20260503025517 9 5 6.4 8.0 0.00 0.00 0.00 41 1010.0
20260503025016 9 30 6.4 6.4 0.00 0.00 0.00 40 1010.0
20260503024516 10 52 4.8 4.8 0.00 0.00 0.00 41 1010.0
20260503024017 10 26 0.0 6.4 0.00 0.00 0.00 39 1010.0
20260503023516 10 27 8.0 8.0 0.00 0.00 0.00 39 1010.0
20260503023017 10 17 1.6 4.8 0.00 0.00 0.00 40 1010.0
20260503022516 10 27 3.2 4.8 0.00 0.00 0.00 39 1010.0
20260503022017 10 3 1.6 6.4 0.00 0.00 0.00 39 1010.0
20260503021516 10 333 1.6 4.8 0.00 0.00 0.00 39 1010.0
20260503021017 10 21 3.2 4.8 0.00 0.00 0.00 39 1010.0
20260503020517 10 23 3.2 6.4 0.00 0.00 0.00 38 1010.0
20260503020017 10 71 3.2 6.4 0.00 0.00 0.00 38 1010.0
20260503015517 10 51 3.2 6.4 0.00 0.00 0.00 38 1010.0
20260503015016 10 19 1.6 4.8 0.00 0.00 0.00 40 1010.0
20260503014517 10 31 0.0 6.4 0.00 0.00 0.00 38 1010.0
20260503014016 10 58 0.0 3.2 0.00 0.00 0.00 39 1010.0
20260503013517 10 97 1.6 4.8 0.00 0.00 0.00 39 1010.0
20260503013017 10 21 4.8 4.8 0.00 0.00 0.00 39 1010.0
20260503012516 10 81 1.6 6.4 0.00 0.00 0.00 39 1010.0
20260503012017 10 37 0.0 4.8 0.00 0.00 0.00 39 1010.0
20260503011516 10 25 4.8 4.8 0.00 0.00 0.00 40 1010.0
20260503011017 10 26 3.2 3.2 0.00 0.00 0.00 39 1010.0
20260503010516 10 43 0.0 4.8 0.00 0.00 0.00 39 1010.0
20260503010016 10 34 1.6 4.8 0.00 0.00 0.00 39 1010.0
20260503005517 10 30 3.2 4.8 0.00 0.00 0.00 39 1010.0
20260503005016 10 1 3.2 4.8 0.00 0.00 0.00 39 1010.0